DateTimeUTC,F1_A11,F1_S11,BsB_S11,BsG_S11,BsR_S11,BbsB_S11,BbsG_S11,BbsR_S11,BaB_A11,BaG_A11,BaR_A11,Tu_S11,T_S11,Uu_S11,U_S11,P_S11,T1_A11
2021-09-07T07:00:00Z,00000200,21000000,,,,,,,0000.31,0000.35,0000.22,18.0,25.0,,00.0,0662.1,31.0
2021-09-07T07:01:00Z,00000200,21000000,,,,,,,0000.16,-000.06,-000.47,18.0,25.1,,00.0,0662.1,31.0
2021-09-07T07:02:00Z,00000200,21000000,,,,,,,-000.31,-000.22,0000.35,18.1,25.1,,00.0,0662.1,31.0
2021-09-07T07:03:00Z,00000200,61000000,,,,,,,0000.35,0000.22,0000.47,18.1,25.1,,00.0,0662.1,31.0
2021-09-07T07:04:00Z,00000200,41000000,0001.41,0000.82,0000.60,-000.17,0000.20,0000.13,0000.16,0000.10,-000.35,18.3,24.9,,00.0,0663.0,31.0
2021-09-07T07:05:00Z,00000200,01000000,0002.17,0000.58,0000.58,-000.15,0000.09,0000.43,0000.47,0000.44,0000.13,18.3,24.8,,00.0,0663.0,31.0
2021-09-07T07:06:00Z,00000200,01000000,0001.62,0001.03,0000.60,0000.63,0000.21,0000.20,-000.14,-000.03,0000.21,18.3,24.8,,00.0,0663.0,31.0
2021-09-07T07:07:00Z,00000200,01000000,0001.85,0000.86,0000.54,0000.35,0000.24,0000.03,0000.58,0000.44,0000.17,18.2,24.8,,00.0,0663.0,30.9
2021-09-07T07:08:00Z,00000200,01000000,0001.08,0000.98,0000.77,0000.56,0000.08,0000.31,-000.32,-000.24,0000.09,18.1,24.7,,00.0,0663.0,31.0
2021-09-07T07:09:00Z,00000200,01000000,0001.64,0001.07,0000.59,-000.19,0000.29,-000.03,0000.20,0000.21,-000.01,18.1,24.7,,00.0,0663.0,30.9
2021-09-07T07:10:00Z,00000200,01000000,0002.03,0001.09,0000.92,0000.50,0000.15,0000.31,0000.31,0000.20,0000.27,18.0,24.6,,00.0,0663.0,30.9
2021-09-07T07:11:00Z,00000200,01000000,0001.96,0001.07,0000.72,-000.13,0000.36,0000.17,0000.47,0000.39,0000.18,18.0,24.6,,00.0,0663.0,30.9
2021-09-07T07:12:00Z,00000200,01000000,0002.58,0001.33,0000.84,0000.13,0000.33,0000.48,-000.14,0000.13,0000.36,18.0,24.6,,00.0,0663.0,30.9
2021-09-07T07:13:00Z,00000200,01000000,0002.05,0001.42,0000.98,-000.24,0000.29,0000.16,0000.40,0000.73,0000.18,18.1,24.6,,00.0,0663.0,30.9
2021-09-07T07:14:00Z,00000200,01000000,0001.26,0000.94,0000.87,-000.25,0000.33,0000.25,0000.32,-000.08,0000.18,18.2,24.7,,00.0,0663.0,31.0
2021-09-07T07:15:00Z,00000200,01000000,0001.60,0001.21,0000.63,0000.04,0000.29,0000.10,0000.37,0000.50,0000.31,18.3,24.7,,00.0,0663.0,31.0
2021-09-07T07:16:00Z,00000200,01000000,0001.60,0000.98,0000.76,-000.10,0000.22,0000.48,0000.56,0000.04,0000.11,18.4,24.8,,00.0,0663.0,31.0
2021-09-07T07:17:00Z,00000200,01000000,0002.37,0001.05,0000.60,0000.09,0000.18,0000.37,0000.17,0000.47,0000.50,18.5,24.8,,00.0,0663.1,31.0
2021-09-07T07:18:00Z,00000200,01000000,0001.73,0000.84,0000.99,-000.06,0000.13,0000.24,0000.28,0000.16,0000.02,18.5,24.8,,00.0,0663.1,31.0
2021-09-07T07:19:00Z,00000200,01000000,0001.76,0001.10,0000.60,0000.34,0000.37,0000.14,-000.01,0000.16,0000.11,18.5,24.9,,00.0,0663.0,31.0
2021-09-07T07:20:00Z,00000200,01000000,0001.81,0000.92,0000.69,0000.27,0000.26,-000.16,0000.37,0000.46,0000.10,18.5,24.8,,00.0,0663.0,31.0
2021-09-07T07:21:00Z,00000200,01000000,0002.64,0000.82,0000.68,0000.59,0000.63,0000.41,0000.32,0000.03,0000.08,18.4,24.8,,00.0,0663.0,31.0
2021-09-07T07:22:00Z,00000200,01000000,0001.05,0000.95,0000.73,-000.04,-000.16,0000.33,0000.04,0000.06,0000.44,18.3,24.7,,00.0,0663.0,31.0
2021-09-07T07:23:00Z,00000200,01000000,0001.51,0000.94,0000.50,-000.20,0000.14,0000.65,0000.43,-000.05,0000.14,18.2,24.7,,00.0,0663.0,31.0
2021-09-07T07:24:00Z,00000200,01000000,0001.63,0000.54,0000.64,-000.01,0000.07,0000.16,0000.20,0000.52,-000.11,18.2,24.7,,00.0,0663.0,30.9
2021-09-07T07:25:00Z,00000200,01000000,0001.58,0000.93,0000.64,-000.02,0000.18,-000.12,0000.51,0000.06,0000.27,18.1,24.6,,00.0,0663.0,30.9
2021-09-07T07:26:00Z,00000200,01000000,0001.06,0001.04,0000.89,-000.06,-000.02,0000.38,0000.06,0000.17,0000.17,18.1,24.6,,00.0,0663.0,30.9
2021-09-07T07:27:00Z,00000200,01000000,0001.82,0000.78,0000.82,-000.04,0000.57,0000.17,0000.39,0000.50,0000.42,18.1,24.6,,00.0,0663.0,31.0
2021-09-07T07:28:00Z,00000200,01000000,0001.68,0000.83,0000.83,0000.36,0000.27,0000.27,-000.02,0000.19,0000.32,18.2,24.6,,00.0,0663.0,31.0
2021-09-07T07:29:00Z,00000200,01000000,0001.62,0000.93,0000.36,0000.00,0000.21,-000.00,0000.40,0000.11,0000.08,18.3,24.7,,00.0,0663.0,31.0
2021-09-07T07:30:00Z,00000200,01000000,0000.96,0001.09,0000.64,0000.44,0000.29,-000.23,0000.43,0000.25,-000.07,18.4,24.7,,00.0,0663.0,31.0
2021-09-07T07:31:00Z,00000200,01000000,0001.37,0000.81,0000.86,0000.02,0000.21,0000.32,-000.10,0000.73,0000.39,18.5,24.8,,00.0,0663.1,31.0
2021-09-07T07:32:00Z,00000200,01000000,0000.76,0000.64,0000.86,0000.05,0000.23,0000.09,0000.31,-000.23,0000.19,18.5,24.8,,00.0,0663.1,31.0
2021-09-07T07:33:00Z,00000200,01000000,0001.13,0000.91,0000.72,0000.41,-000.00,0000.32,0000.37,0000.44,0000.07,18.6,24.8,,00.0,0663.1,31.0
2021-09-07T07:34:00Z,00000200,01000000,0002.00,0000.89,0000.62,0000.27,0000.25,0000.13,0000.13,0000.06,0000.04,18.5,24.8,,00.0,0663.1,31.0
2021-09-07T07:35:00Z,00000200,01000000,0001.52,0000.99,0000.69,0000.81,0000.31,-000.11,-000.02,0000.51,-000.01,18.5,24.8,,00.0,0663.1,31.0
2021-09-07T07:36:00Z,00000200,01000000,0001.41,0000.78,0000.46,0000.08,0000.31,0000.09,0000.29,-000.32,0000.02,18.4,24.7,,00.0,0663.1,31.0
2021-09-07T07:37:00Z,00000200,01000000,0001.24,0000.60,0000.93,0000.14,0000.30,0000.31,0000.25,0000.47,0000.49,18.3,24.7,,00.0,0663.0,31.0
2021-09-07T07:38:00Z,00000200,01000000,0001.78,0000.63,0000.69,-000.36,0000.04,0000.22,0000.20,0000.21,0000.28,18.2,24.7,,00.0,0663.0,30.9
2021-09-07T07:39:00Z,00000200,01000000,0001.49,0000.94,0000.47,0000.45,0000.41,0000.19,0000.30,0000.15,0000.07,18.2,24.6,,00.0,0663.0,30.9
2021-09-07T07:40:00Z,00000200,01000000,0001.69,0000.88,0000.73,0000.35,0000.21,0000.25,0000.43,0000.31,0000.02,18.1,24.6,,00.0,0663.0,30.9
2021-09-07T07:41:00Z,00000200,01000000,0002.03,0000.98,0000.67,-000.21,-000.07,0000.12,-000.22,-000.22,0000.13,18.1,24.5,,00.0,0663.0,31.0
2021-09-07T07:42:00Z,00000200,01000000,0001.65,0000.76,0000.54,-000.54,0000.55,0000.19,0000.54,0000.26,0000.52,18.1,24.5,,00.0,0663.0,30.9
2021-09-07T07:43:00Z,00000200,01000000,0001.70,0000.90,0000.73,-000.29,0000.28,0000.19,0000.42,0000.65,-000.06,18.2,24.6,,00.0,0663.0,31.0
2021-09-07T07:44:00Z,00000200,01000000,0001.00,0001.00,0000.75,0000.19,0000.04,0000.51,0000.09,0000.17,0000.41,18.2,24.6,,00.0,0663.0,31.0
2021-09-07T07:45:00Z,00000200,01000000,0001.43,0000.93,0000.41,0000.49,0000.49,0000.34,0000.12,0000.21,0000.19,18.3,24.7,,00.0,0663.0,31.0
2021-09-07T07:46:00Z,00000200,01000000,0001.69,0001.02,0000.83,0000.02,0000.41,0000.31,0000.23,-000.01,0000.13,18.4,24.7,,00.0,0663.0,31.0
2021-09-07T07:47:00Z,00000200,01000000,0001.91,0000.98,0000.81,-000.34,0000.18,0000.29,0000.18,0000.41,0000.10,18.4,24.8,,00.0,0663.0,31.0
2021-09-07T07:48:00Z,00000200,01000000,0002.07,0001.39,0000.94,0000.13,0000.31,0000.31,0000.09,0000.53,0000.15,18.4,24.7,,00.0,0663.0,31.0
2021-09-07T07:49:00Z,00000200,01000000,0002.10,0000.76,0000.82,0000.15,0000.07,0000.22,0000.59,-000.02,0000.14,18.3,24.7,,00.0,0663.0,30.9
2021-09-07T07:50:00Z,00000200,01000000,0001.00,0000.98,0000.49,0000.20,0000.27,0000.31,-000.13,0000.12,0000.62,18.3,24.6,,00.0,0663.0,30.9
2021-09-07T07:51:00Z,00000200,01000000,0001.67,0000.73,0000.77,0000.34,0000.24,0000.31,0001.11,0000.47,-000.25,18.2,24.6,,00.0,0663.0,30.9
2021-09-07T07:52:00Z,00000200,01000000,0001.70,0000.67,0000.45,0000.63,0000.11,0000.22,-000.09,0000.24,0000.24,18.1,24.6,,00.0,0663.0,30.9
2021-09-07T07:53:00Z,00000200,01000000,0001.72,0000.80,0000.52,0000.22,0000.43,0000.10,0000.66,0000.18,0000.37,18.0,24.5,,00.0,0663.0,30.9
2021-09-07T07:54:00Z,00000200,01000000,0002.22,0000.68,0000.59,0000.13,0000.23,0000.14,0000.07,0000.34,-000.12,18.0,24.5,,00.0,0663.0,30.9
2021-09-07T07:55:00Z,00000200,01000000,0001.41,0000.97,0000.66,0000.14,0000.19,0000.28,0000.29,0000.22,0000.16,17.9,24.4,,00.0,0663.0,30.9
2021-09-07T07:56:00Z,00000200,01000000,0001.87,0000.75,0000.99,-000.01,0000.09,0000.40,0000.40,-000.00,0000.40,17.9,24.4,,00.0,0663.0,30.9
2021-09-07T07:57:00Z,00000200,41000000,,,,,,,0000.39,0000.44,0000.15,17.9,24.5,,00.0,0663.1,30.9
2021-09-07T07:58:00Z,00000200,61000000,,,,,,,-000.25,-000.16,0000.22,17.6,24.6,,00.0,0662.0,31.0
2021-09-07T07:59:00Z,00000200,21000000,,,,,,,0000.02,0000.34,-000.04,17.7,24.7,,00.0,0662.0,31.0
